Terug naar catalogus

STARLINK-1338

ActiefCommunicatieVLEO
NORAD 45532·PAYLOAD·🇺🇸 United States

Gelanceerd Apr 22, 2020 vanaf Cape Canaveral Space Force Station

Loading…

Volgende Passages (komende 24 uur)

TLE

VersSource: CelesTrak SupGP

Epoch: Sep 14, 2026, 22:00 UTC

1 45532C 20025B   26257.91715278  .00148430  00000+0  57803-3 0  2572
2 45532  53.0357 228.9733 0004725  44.8818 102.9098 15.86279424    17

Volg STARLINK-1338 in realtime met AllMySat

Download on the App Store